Lloydminster Airport
CYLL : now visible

Airfield :











YOU CAN JOIN US ON...

 
LOGIN :

Register | Disclaimer

   EN    FR    IT 

 









Legend :    VFR   Marginal VFR   IFR   Intensive IFR   Very Intensive IFR
Visi :
Ceiling :
>= 8 km
>= 3000ft
5 to 8 km
1000 to 3000 ft
1500m to 5 km
500 to 1000 ft
800 to 1500m
200 to 500 ft
< 800m
< 200 ft
Symbols :   Thunderstorms  Fog  Heavy snow  Heavy precipitations  Wind > 20 kt






- Airport Elevation : 2193 ft
- IATA code : YLL


CYLL - Lloydminster

CURRENT METAR :
  • 272100Z 26011G17KT 15SM FEW260 25/05 A2951 RMK CI1 SLP999 DENSITY ALT 4300FT

EXPIRED METARs :
  • 272000Z 24008KT 190V260 15SM FEW260 25/05 A2951 RMK CI1 SLP999 DENSITY ALT 4400FT
  • 271900Z 25007KT 200V270 15SM FEW270 24/07 A2952 RMK CI1 CI TR SLP002 DENSITY ALT 4200FT

TAF TAF CYLL
Valid from the 27 at 18:00 until the 28 at 06:00 UTC


271738Z 2718/2806 12008KT P6SM SCT270
BECMG 2718/2720 22008KT RMK NXT FCST BY 280000Z
CZEG FIR / North America



MET'MAP, your aeronautical weather chart ! - Copyright ORBIFLY December 2007 - Disclaimer

ORBIFLY MET'MAP TEAM :

Programming & Development : Alexandra Zaïnal
Concept & original design : Baudouin d'Aumeries
Assistance for programming : Marc-Olivier Méhu
Technical & hardware support : Manuel Goepfert

Contact : metmap@orbifly.com




SOURCES & CREDITS :

   NOAA       Earth
Advisory